| time (UTC) | temp F | wind direction | speed knots | gust knots | rain 1hr in | rain 24hr in | rain mn in | humidity % | barometer mb |
| 20260509064518 | 69 | 230 | 0.0 | 0.9 | 0.00 | 0.00 | 0.00 | 89 | 1010.2 |
| 20260509064006 | 69 | 230 | 0.0 | 1.7 | 0.00 | 0.00 | 0.00 | 88 | 1010.3 |
| 20260509063505 | 69 | 230 | 0.0 | 1.7 | 0.00 | 0.00 | 0.00 | 88 | 1010.3 |
| 20260509063022 | 69 | 215 | 0.0 | 1.7 | 0.00 | 0.00 | 0.00 | 88 | 1010.4 |
| 20260509062511 | 69 | 215 | 0.0 | 1.7 | 0.00 | 0.00 | 0.00 | 88 | 1010.3 |
| 20260509062004 | 70 | 216 | 0.0 | 1.7 | 0.00 | 0.00 | 0.00 | 87 | 1010.3 |
| 20260509061505 | 70 | 216 | 0.0 | 1.7 | 0.00 | 0.00 | 0.00 | 87 | 1010.2 |
| 20260509061006 | 70 | 218 | 0.0 | 0.0 | 0.00 | 0.00 | 0.00 | 87 | 1010.6 |
| 20260509060503 | 70 | 218 | 0.0 | 0.0 | 0.00 | 0.00 | 0.00 | 86 | 1010.9 |
| 20260509060008 | 70 | 218 | 0.0 | 0.0 | 0.00 | 0.00 | 0.00 | 86 | 1010.9 |
| 20260509055503 | 70 | 218 | 0.0 | 0.0 | 0.00 | 0.00 | 0.00 | 86 | 1011.0 |
| 20260509055005 | 70 | 218 | 0.0 | 0.0 | 0.00 | 0.00 | 0.00 | 86 | 1011.2 |
| 20260509054516 | 70 | 218 | 0.0 | 0.9 | 0.00 | 0.00 | 0.00 | 86 | 1011.4 |
| 20260509054004 | 71 | 217 | 0.0 | 0.9 | 0.00 | 0.00 | 0.00 | 86 | 1011.2 |
| 20260509053504 | 71 | 219 | 0.0 | 0.9 | 0.00 | 0.00 | 0.00 | 85 | 1011.0 |
| 20260509053018 | 71 | 219 | 0.0 | 0.9 | 0.00 | 0.00 | 0.00 | 85 | 1011.4 |
| 20260509052506 | 71 | 219 | 0.0 | 1.7 | 0.00 | 0.00 | 0.00 | 85 | 1011.7 |
| 20260509052005 | 71 | 219 | 0.0 | 1.7 | 0.00 | 0.00 | 0.00 | 85 | 1012.0 |
| 20260509051528 | 71 | 208 | 0.0 | 0.9 | 0.00 | 0.00 | 0.00 | 85 | 1011.9 |
| 20260509051010 | 71 | 208 | 0.0 | 0.9 | 0.00 | 0.00 | 0.00 | 84 | 1011.6 |
| 20260509050504 | 71 | 208 | 0.0 | 0.9 | 0.00 | 0.00 | 0.00 | 84 | 1011.0 |
| 20260509050007 | 71 | 209 | 0.0 | 0.9 | 0.00 | 0.00 | 0.00 | 84 | 1010.5 |
| 20260509045505 | 71 | 203 | 0.0 | 0.9 | 0.00 | 0.00 | 0.00 | 83 | 1010.3 |
| 20260509045003 | 71 | 202 | 0.0 | 0.9 | 0.00 | 0.00 | 0.00 | 83 | 1010.3 |
| 20260509044512 | 71 | 203 | 0.0 | 0.9 | 0.00 | 0.00 | 0.00 | 83 | 1010.4 |
| 20260509044003 | 72 | 203 | 0.0 | 4.3 | 0.00 | 0.00 | 0.00 | 82 | 1010.3 |
| 20260509043503 | 72 | 201 | 0.0 | 4.3 | 0.00 | 0.00 | 0.00 | 82 | 1009.9 |
| 20260509043013 | 72 | 202 | 0.0 | 5.2 | 0.00 | 0.00 | 0.00 | 82 | 1009.9 |
| 20260509042505 | 72 | 196 | 0.0 | 7.0 | 0.00 | 0.00 | 0.00 | 81 | 1009.8 |
| 20260509042010 | 72 | 150 | 1.7 | 7.0 | 0.00 | 0.00 | 0.00 | 81 | 1009.8 |
| 20260509041522 | 72 | 164 | 0.9 | 4.3 | 0.00 | 0.00 | 0.00 | 81 | 1010.2 |
| 20260509041010 | 72 | 190 | 0.0 | 0.0 | 0.00 | 0.00 | 0.00 | 81 | 1010.6 |
| 20260509040511 | 72 | 190 | 0.0 | 0.0 | 0.00 | 0.00 | 0.00 | 81 | 1011.1 |
| 20260509040026 | 72 | 190 | 0.0 | 0.0 | 0.00 | 0.00 | 0.00 | 81 | 1011.4 |
| 20260509035515 | 72 | 190 | 0.0 | 0.0 | 0.00 | 0.00 | 0.00 | 81 | 1011.3 |
| 20260509035004 | 72 | 190 | 0.0 | 0.0 | 0.00 | 0.00 | 0.00 | 81 | 1011.2 |
| 20260509034533 | 72 | 190 | 0.0 | 0.0 | 0.00 | 0.00 | 0.00 | 81 | 1011.3 |
| 20260509034003 | 72 | 190 | 0.0 | 0.0 | 0.00 | 0.00 | 0.00 | 81 | 1011.4 |
| 20260509033503 | 72 | 189 | 0.0 | 0.0 | 0.00 | 0.00 | 0.00 | 81 | 1011.2 |
| 20260509033012 | 72 | 189 | 0.0 | 0.0 | 0.00 | 0.00 | 0.00 | 81 | 1010.9 |
| 20260509032507 | 72 | 189 | 0.0 | 0.0 | 0.00 | 0.00 | 0.00 | 81 | 1010.7 |
| 20260509032012 | 72 | 189 | 0.0 | 0.9 | 0.00 | 0.00 | 0.00 | 81 | 1010.5 |
| 20260509031522 | 72 | 189 | 0.0 | 0.9 | 0.00 | 0.00 | 0.00 | 81 | 1010.4 |
| 20260509031007 | 72 | 189 | 0.0 | 0.9 | 0.00 | 0.00 | 0.00 | 80 | 1010.3 |
| 20260509030507 | 72 | 190 | 0.0 | 0.9 | 0.00 | 0.00 | 0.00 | 80 | 1010.4 |
| 20260509030023 | 72 | 190 | 0.0 | 0.9 | 0.00 | 0.00 | 0.00 | 80 | 1010.5 |
| 20260509025506 | 72 | 190 | 0.0 | 0.9 | 0.00 | 0.00 | 0.00 | 80 | 1010.3 |
| 20260509025008 | 72 | 190 | 0.0 | 0.0 | 0.00 | 0.00 | 0.00 | 80 | 1010.3 |
| 20260509024525 | 72 | 190 | 0.0 | 2.6 | 0.00 | 0.00 | 0.00 | 80 | 1010.1 |
| 20260509024008 | 72 | 190 | 0.0 | 2.6 | 0.00 | 0.00 | 0.00 | 79 | 1009.9 |
| 20260509023506 | 73 | 195 | 0.0 | 1.7 | 0.00 | 0.00 | 0.00 | 79 | 1009.7 |
| 20260509023009 | 73 | 194 | 0.0 | 1.7 | 0.00 | 0.00 | 0.00 | 79 | 1009.7 |
| 20260509022503 | 73 | 191 | 0.0 | 1.7 | 0.00 | 0.00 | 0.00 | 79 | 1009.7 |
| 20260509022004 | 73 | 191 | 0.0 | 1.7 | 0.00 | 0.00 | 0.00 | 79 | 1009.7 |
| 20260509021520 | 73 | 191 | 0.0 | 3.5 | 0.00 | 0.00 | 0.00 | 79 | 1009.7 |
| 20260509021008 | 73 | 180 | 0.0 | 4.3 | 0.00 | 0.00 | 0.00 | 79 | 1009.7 |
| 20260509020509 | 73 | 163 | 0.0 | 4.3 | 0.00 | 0.00 | 0.00 | 79 | 1009.3 |
| 20260509020020 | 73 | 192 | 0.0 | 1.7 | 0.00 | 0.00 | 0.00 | 79 | 1009.7 |
| 20260509015507 | 73 | 192 | 0.0 | 1.7 | 0.00 | 0.00 | 0.00 | 79 | 1009.8 |
| 20260509015008 | 73 | 192 | 0.0 | 0.0 | 0.00 | 0.00 | 0.00 | 78 | 1009.6 |
| 20260509014523 | 73 | 192 | 0.0 | 0.0 | 0.00 | 0.00 | 0.00 | 78 | 1009.6 |
| 20260509014007 | 73 | 192 | 0.0 | 0.0 | 0.00 | 0.00 | 0.00 | 78 | 1009.5 |
| 20260509013508 | 73 | 192 | 0.0 | 0.0 | 0.00 | 0.00 | 0.00 | 77 | 1009.5 |
| 20260509013026 | 73 | 192 | 0.0 | 0.0 | 0.00 | 0.00 | 0.00 | 77 | 1009.3 |
| 20260509012509 | 73 | 192 | 0.0 | 0.0 | 0.00 | 0.00 | 0.00 | 77 | 1009.4 |
| 20260509012004 | 73 | 192 | 0.0 | 0.9 | 0.00 | 0.00 | 0.00 | 77 | 1009.0 |
| 20260509011512 | 73 | 192 | 0.0 | 0.9 | 0.00 | 0.00 | 0.00 | 76 | 1009.3 |
| 20260509011003 | 73 | 192 | 0.0 | 2.6 | 0.00 | 0.00 | 0.00 | 76 | 1008.8 |
| 20260509010504 | 74 | 192 | 0.0 | 2.6 | 0.00 | 0.00 | 0.00 | 75 | 1009.1 |
| 20260509010021 | 74 | 191 | 0.0 | 2.6 | 0.00 | 0.00 | 0.00 | 75 | 1009.0 |
| 20260509005505 | 74 | 183 | 0.0 | 2.6 | 0.00 | 0.00 | 0.00 | 75 | 1008.9 |
| 20260509005007 | 74 | 202 | 0.0 | 5.2 | 0.00 | 0.00 | 0.00 | 75 | 1008.9 |
| 20260509004532 | 74 | 190 | 0.0 | 5.2 | 0.00 | 0.00 | 0.00 | 74 | 1008.8 |
| 20260509004008 | 74 | 191 | 0.0 | 3.5 | 0.00 | 0.00 | 0.00 | 74 | 1008.8 |
| 20260509003508 | 74 | 175 | 0.0 | 4.3 | 0.00 | 0.00 | 0.00 | 74 | 1008.8 |
| 20260509003026 | 74 | 167 | 0.0 | 7.0 | 0.00 | 0.00 | 0.00 | 73 | 1008.7 |
| 20260509002511 | 75 | 191 | 0.9 | 7.0 | 0.00 | 0.00 | 0.00 | 73 | 1008.3 |
| 20260509002012 | 75 | 360 | 0.9 | 7.0 | 0.00 | 0.00 | 0.00 | 73 | 1008.5 |
| 20260509001512 | 75 | 176 | 0.0 | 3.5 | 0.00 | 0.00 | 0.00 | 73 | 1008.7 |
| 20260509001004 | 75 | 193 | 0.0 | 2.6 | 0.00 | 0.00 | 0.00 | 72 | 1008.9 |
| 20260509000504 | 75 | 192 | 0.0 | 4.3 | 0.00 | 0.00 | 0.00 | 72 | 1008.9 |
| 20260509000015 | 75 | 206 | 0.0 | 5.2 | 0.00 | 0.00 | 0.00 | 72 | 1008.8 |
| 20260508235504 | 75 | 182 | 0.9 | 5.2 | 0.00 | 0.00 | 0.00 | 71 | 1008.9 |
| 20260508235004 | 75 | 162 | 0.0 | 5.2 | 0.00 | 0.00 | 0.00 | 70 | 1008.9 |
| 20260508234522 | 76 | 193 | 0.9 | 5.2 | 0.00 | 0.00 | 0.00 | 70 | 1009.0 |
| 20260508234006 | 76 | 360 | 0.0 | 4.3 | 0.00 | 0.00 | 0.00 | 69 | 1009.1 |
| 20260508233506 | 76 | 205 | 0.0 | 2.6 | 0.00 | 0.00 | 0.00 | 69 | 1009.2 |
| 20260508233020 | 76 | 197 | 0.0 | 1.7 | 0.00 | 0.00 | 0.00 | 70 | 1009.1 |
| 20260508232507 | 76 | 192 | 0.0 | 2.6 | 0.00 | 0.00 | 0.00 | 70 | 1009.2 |
| 20260508232007 | 76 | 189 | 0.0 | 3.5 | 0.00 | 0.00 | 0.00 | 70 | 1009.4 |
| 20260508231509 | 76 | 206 | 0.0 | 5.2 | 0.00 | 0.00 | 0.00 | 70 | 1009.5 |
| 20260508231003 | 76 | 211 | 0.0 | 7.0 | 0.00 | 0.00 | 0.00 | 69 | 1009.5 |
| 20260508230502 | 76 | 196 | 1.7 | 7.0 | 0.00 | 0.00 | 0.00 | 69 | 1009.5 |
| 20260508230011 | 77 | 257 | 0.0 | 4.3 | 0.00 | 0.00 | 0.00 | 69 | 1009.5 |
| 20260508225503 | 77 | 360 | 0.0 | 5.2 | 0.00 | 0.00 | 0.00 | 68 | 1009.5 |
| 20260508225008 | 78 | 167 | 0.0 | 6.1 | 0.00 | 0.00 | 0.00 | 68 | 1009.5 |
| 20260508224520 | 78 | 225 | 0.9 | 6.1 | 0.00 | 0.00 | 0.00 | 67 | 1009.5 |
| 20260508224003 | 78 | 158 | 0.9 | 6.1 | 0.00 | 0.00 | 0.00 | 67 | 1009.4 |
| 20260508223504 | 79 | 309 | 0.9 | 7.8 | 0.00 | 0.00 | 0.00 | 66 | 1009.4 |
| 20260508223034 | 79 | 360 | 1.7 | 7.8 | 0.00 | 0.00 | 0.00 | 67 | 1009.3 |
| 20260508222506 | 79 | 233 | 1.7 | 7.8 | 0.00 | 0.00 | 0.00 | 66 | 1009.2 |
| 20260508222008 | 79 | 194 | 0.9 | 8.7 | 0.00 | 0.00 | 0.00 | 66 | 1009.2 |
| 20260508221524 | 79 | 212 | 0.0 | 8.7 | 0.00 | 0.00 | 0.00 | 66 | 1009.2 |
| 20260508221007 | 79 | 360 | 2.6 | 8.7 | 0.00 | 0.00 | 0.00 | 66 | 1009.1 |
| 20260508220504 | 79 | 360 | 0.9 | 9.6 | 0.00 | 0.00 | 0.00 | 66 | 1009.1 |
| 20260508220010 | 79 | 360 | 3.5 | 9.6 | 0.00 | 0.00 | 0.00 | 67 | 1009.1 |
| 20260508215504 | 79 | 201 | 0.0 | 7.0 | 0.00 | 0.00 | 0.00 | 67 | 1009.1 |
| 20260508215004 | 78 | 192 | 0.9 | 7.0 | 0.00 | 0.00 | 0.00 | 68 | 1009.2 |
| 20260508214521 | 78 | 214 | 2.6 | 7.0 | 0.00 | 0.00 | 0.00 | 68 | 1009.1 |
| 20260508214006 | 77 | 141 | 1.7 | 7.0 | 0.00 | 0.00 | 0.00 | 68 | 1008.9 |
| 20260508213503 | 77 | 144 | 0.0 | 5.2 | 0.00 | 0.00 | 0.00 | 69 | 1008.9 |
| 20260508213019 | 76 | 157 | 0.9 | 5.2 | 0.00 | 0.00 | 0.00 | 69 | 1009.2 |
| 20260508212504 | 75 | 188 | 1.7 | 4.3 | 0.00 | 0.00 | 0.00 | 72 | 1009.3 |
| 20260508212011 | 75 | 194 | 0.0 | 4.3 | 0.00 | 0.00 | 0.00 | 72 | 1009.7 |
| 20260508211524 | 74 | 180 | 0.9 | 4.3 | 0.00 | 0.00 | 0.00 | 71 | 1009.8 |
| 20260508211012 | 75 | 191 | 0.9 | 4.3 | 0.00 | 0.00 | 0.00 | 71 | 1009.9 |
| 20260508210508 | 75 | 209 | 0.0 | 2.6 | 0.00 | 0.00 | 0.00 | 72 | 1010.2 |
| 20260508210026 | 75 | 211 | 0.0 | 2.6 | 0.00 | 0.00 | 0.00 | 73 | 1010.5 |
| 20260508205503 | 76 | 360 | 0.0 | 2.6 | 0.00 | 0.00 | 0.00 | 72 | 1010.6 |
| 20260508205004 | 76 | 197 | 0.0 | 2.6 | 0.00 | 0.00 | 0.00 | 68 | 1010.7 |
| 20260508204514 | 76 | 202 | 0.0 | 7.0 | 0.00 | 0.00 | 0.00 | 67 | 1010.9 |
| 20260508204005 | 77 | 207 | 0.0 | 7.0 | 0.00 | 0.00 | 0.00 | 67 | 1010.9 |
| 20260508203504 | 77 | 360 | 0.0 | 3.5 | 0.00 | 0.00 | 0.00 | 66 | 1011.0 |
| 20260508203018 | 77 | 204 | 0.0 | 8.7 | 0.00 | 0.00 | 0.00 | 65 | 1011.1 |
| 20260508202507 | 78 | 43 | 0.0 | 8.7 | 0.00 | 0.00 | 0.00 | 64 | 1011.0 |
| 20260508202006 | 79 | 360 | 0.0 | 4.3 | 0.00 | 0.00 | 0.00 | 63 | 1011.0 |
| 20260508201521 | 79 | 360 | 0.0 | 7.8 | 0.00 | 0.00 | 0.00 | 63 | 1011.0 |
| 20260508201006 | 80 | 237 | 0.9 | 7.8 | 0.00 | 0.00 | 0.00 | 62 | 1011.0 |
| 20260508200507 | 80 | 215 | 0.9 | 7.0 | 0.00 | 0.00 | 0.00 | 61 | 1011.0 |
| 20260508200023 | 81 | 360 | 0.9 | 5.2 | 0.00 | 0.00 | 0.00 | 61 | 1011.0 |
| 20260508195509 | 81 | 47 | 0.0 | 4.3 | 0.00 | 0.00 | 0.00 | 60 | 1011.0 |
| 20260508195006 | 81 | 221 | 0.0 | 5.2 | 0.00 | 0.00 | 0.00 | 60 | 1011.0 |
| 20260508194528 | 81 | 224 | 0.9 | 9.6 | 0.00 | 0.00 | 0.00 | 60 | 1011.2 |
| 20260508194003 | 82 | 360 | 0.0 | 9.6 | 0.00 | 0.00 | 0.00 | 58 | 1011.2 |
| 20260508193504 | 82 | 360 | 0.0 | 4.3 | 0.00 | 0.00 | 0.00 | 59 | 1011.2 |
| 20260508193010 | 81 | 360 | 0.0 | 3.5 | 0.00 | 0.00 | 0.00 | 60 | 1011.2 |
| 20260508192507 | 81 | 246 | 0.0 | 4.3 | 0.00 | 0.00 | 0.00 | 60 | 1011.2 |
| 20260508192009 | 81 | 360 | 0.0 | 7.8 | 0.00 | 0.00 | 0.00 | 60 | 1011.3 |
| 20260508191518 | 81 | 170 | 0.9 | 7.8 | 0.00 | 0.00 | 0.00 | 61 | 1011.4 |
| 20260508191004 | 81 | 360 | 0.0 | 7.8 | 0.00 | 0.00 | 0.00 | 61 | 1011.4 |
| 20260508190506 | 81 | 360 | 2.6 | 7.8 | 0.00 | 0.00 | 0.00 | 61 | 1011.4 |
| 20260508190044 | 80 | 166 | 0.0 | 7.8 | 0.00 | 0.00 | 0.00 | 62 | 1011.5 |
| 20260508185507 | 79 | 360 | 1.7 | 7.8 | 0.00 | 0.00 | 0.00 | 62 | 1011.5 |
| 20260508185007 | 78 | 184 | 0.0 | 7.8 | 0.00 | 0.00 | 0.00 | 63 | 1011.6 |
| 20260508184530 | 78 | 103 | 2.6 | 7.8 | 0.00 | 0.00 | 0.00 | 63 | 1011.4 |
| 20260508184014 | 78 | 119 | 3.5 | 7.8 | 0.00 | 0.00 | 0.00 | 62 | 1011.6 |
| 20260508183507 | 79 | 200 | 0.9 | 7.0 | 0.00 | 0.00 | 0.00 | 62 | 1011.8 |
| 20260508183036 | 79 | 360 | 3.5 | 7.8 | 0.00 | 0.00 | 0.00 | 61 | 1011.9 |
| 20260508182504 | 79 | 360 | 1.7 | 7.8 | 0.00 | 0.00 | 0.00 | 61 | 1012.0 |
| 20260508182004 | 79 | 159 | 0.9 | 7.8 | 0.00 | 0.00 | 0.00 | 61 | 1012.1 |
| 20260508181518 | 79 | 360 | 2.6 | 7.8 | 0.00 | 0.00 | 0.00 | 60 | 1012.1 |
| 20260508181008 | 79 | 159 | 0.9 | 7.8 | 0.00 | 0.00 | 0.00 | 60 | 1012.3 |
| 20260508180509 | 79 | 185 | 0.9 | 7.8 | 0.00 | 0.00 | 0.00 | 60 | 1012.4 |
| 20260508180018 | 79 | 360 | 0.9 | 7.0 | 0.00 | 0.00 | 0.00 | 61 | 1012.5 |
| 20260508175506 | 79 | 360 | 1.7 | 8.7 | 0.00 | 0.00 | 0.00 | 60 | 1012.6 |
| 20260508175007 | 79 | 145 | 1.7 | 8.7 | 0.00 | 0.00 | 0.00 | 61 | 1012.7 |
| 20260508174522 | 78 | 204 | 1.7 | 7.8 | 0.00 | 0.00 | 0.00 | 61 | 1012.7 |
| 20260508174003 | 78 | 171 | 3.5 | 7.8 | 0.00 | 0.00 | 0.00 | 61 | 1012.8 |
| 20260508173502 | 78 | 157 | 0.9 | 9.6 | 0.00 | 0.00 | 0.00 | 62 | 1012.8 |
| 20260508173008 | 77 | 171 | 0.0 | 9.6 | 0.00 | 0.00 | 0.00 | 63 | 1012.9 |
| 20260508172503 | 77 | 139 | 0.9 | 7.8 | 0.00 | 0.00 | 0.00 | 63 | 1013.1 |
| 20260508172004 | 76 | 360 | 1.7 | 10.4 | 0.00 | 0.00 | 0.00 | 63 | 1013.2 |
| 20260508171510 | 76 | 159 | 2.6 | 10.4 | 0.00 | 0.00 | 0.00 | 63 | 1013.2 |
| 20260508171003 | 76 | 162 | 1.7 | 8.7 | 0.00 | 0.00 | 0.00 | 64 | 1013.4 |
| 20260508170505 | 75 | 153 | 1.7 | 6.1 | 0.00 | 0.00 | 0.00 | 65 | 1013.5 |
| 20260508170021 | 75 | 142 | 0.9 | 7.8 | 0.00 | 0.00 | 0.00 | 65 | 1013.7 |
| 20260508165506 | 74 | 160 | 0.9 | 7.8 | 0.00 | 0.00 | 0.00 | 65 | 1013.9 |
| 20260508165007 | 74 | 136 | 0.9 | 4.3 | 0.00 | 0.00 | 0.00 | 67 | 1014.0 |
| 20260508164528 | 73 | 150 | 0.0 | 3.5 | 0.00 | 0.00 | 0.00 | 67 | 1014.1 |
| 20260508164007 | 73 | 360 | 0.9 | 7.8 | 0.00 | 0.00 | 0.00 | 66 | 1014.2 |
| 20260508163508 | 73 | 149 | 0.9 | 7.8 | 0.00 | 0.00 | 0.00 | 66 | 1014.2 |
| 20260508163030 | 73 | 196 | 0.9 | 6.1 | 0.00 | 0.00 | 0.00 | 66 | 1014.2 |
| 20260508162503 | 73 | 177 | 0.9 | 4.3 | 0.00 | 0.00 | 0.00 | 66 | 1014.3 |
| 20260508162003 | 73 | 160 | 0.0 | 5.2 | 0.00 | 0.00 | 0.00 | 66 | 1014.4 |
| 20260508161511 | 73 | 170 | 0.9 | 5.2 | 0.00 | 0.00 | 0.00 | 65 | 1014.4 |
| 20260508161004 | 73 | 185 | 0.0 | 5.2 | 0.00 | 0.00 | 0.00 | 65 | 1014.4 |
| 20260508160507 | 73 | 225 | 0.0 | 6.1 | 0.00 | 0.00 | 0.00 | 65 | 1014.5 |
| 20260508160015 | 73 | 219 | 0.0 | 7.8 | 0.00 | 0.00 | 0.00 | 66 | 1014.6 |
| 20260508155504 | 73 | 360 | 0.0 | 7.8 | 0.00 | 0.00 | 0.00 | 66 | 1014.6 |
| 20260508155004 | 72 | 360 | 0.0 | 7.0 | 0.00 | 0.00 | 0.00 | 67 | 1014.5 |
| 20260508154520 | 72 | 360 | 0.9 | 7.0 | 0.00 | 0.00 | 0.00 | 67 | 1014.6 |
| 20260508154007 | 72 | 164 | 0.0 | 4.3 | 0.00 | 0.00 | 0.00 | 67 | 1014.6 |
| 20260508153508 | 71 | 193 | 0.0 | 5.2 | 0.00 | 0.00 | 0.00 | 68 | 1014.7 |
| 20260508153031 | 71 | 360 | 0.0 | 5.2 | 0.00 | 0.00 | 0.00 | 68 | 1014.8 |
| 20260508152511 | 71 | 201 | 0.0 | 4.3 | 0.00 | 0.00 | 0.00 | 68 | 1015.0 |
| 20260508152010 | 71 | 360 | 0.0 | 6.1 | 0.00 | 0.00 | 0.00 | 67 | 1015.0 |
| 20260508151525 | 71 | 161 | 0.9 | 6.1 | 0.00 | 0.00 | 0.00 | 67 | 1015.0 |
| 20260508151004 | 72 | 152 | 0.9 | 8.7 | 0.00 | 0.00 | 0.00 | 66 | 1015.0 |
| 20260508150504 | 72 | 162 | 2.6 | 8.7 | 0.00 | 0.00 | 0.00 | 66 | 1014.9 |
| 20260508150011 | 72 | 167 | 2.6 | 6.1 | 0.00 | 0.00 | 0.00 | 67 | 1014.6 |
| 20260508145505 | 71 | 150 | 0.9 | 5.2 | 0.00 | 0.00 | 0.00 | 69 | 1014.6 |
| 20260508145005 | 70 | 164 | 0.0 | 3.5 | 0.00 | 0.00 | 0.00 | 69 | 1014.6 |
| 20260508144525 | 70 | 215 | 0.0 | 3.5 | 0.00 | 0.00 | 0.00 | 69 | 1014.7 |
| 20260508144006 | 70 | 203 | 0.0 | 7.8 | 0.00 | 0.00 | 0.00 | 69 | 1014.9 |
| 20260508143506 | 70 | 171 | 0.0 | 7.8 | 0.00 | 0.00 | 0.00 | 69 | 1015.0 |
| 20260508143023 | 70 | 147 | 1.7 | 7.0 | 0.00 | 0.00 | 0.00 | 68 | 1014.9 |
| 20260508142506 | 71 | 157 | 3.5 | 7.0 | 0.00 | 0.00 | 0.00 | 67 | 1015.0 |
| 20260508142010 | 71 | 168 | 0.9 | 5.2 | 0.00 | 0.00 | 0.00 | 68 | 1015.1 |
| 20260508141525 | 70 | 142 | 0.0 | 4.3 | 0.00 | 0.00 | 0.00 | 72 | 1015.2 |
| 20260508141010 | 69 | 171 | 0.0 | 5.2 | 0.00 | 0.00 | 0.00 | 73 | 1015.1 |
| 20260508140508 | 68 | 158 | 0.9 | 5.2 | 0.00 | 0.00 | 0.00 | 73 | 1015.1 |
| 20260508140025 | 68 | 127 | 0.9 | 3.5 | 0.00 | 0.00 | 0.00 | 75 | 1015.2 |
| 20260508135504 | 67 | 133 | 0.0 | 7.0 | 0.00 | 0.00 | 0.00 | 75 | 1015.2 |
| 20260508135007 | 67 | 360 | 0.9 | 7.0 | 0.00 | 0.00 | 0.00 | 77 | 1015.2 |
| 20260508134512 | 66 | 360 | 0.0 | 4.3 | 0.00 | 0.00 | 0.00 | 81 | 1015.1 |
| 20260508134005 | 65 | 153 | 0.0 | 4.3 | 0.00 | 0.00 | 0.00 | 80 | 1015.2 |
| 20260508133506 | 64 | 157 | 0.0 | 5.2 | 0.00 | 0.00 | 0.00 | 81 | 1015.2 |
| 20260508133018 | 64 | 151 | 0.0 | 5.2 | 0.00 | 0.00 | 0.00 | 82 | 1015.1 |
| 20260508132512 | 64 | 360 | 0.0 | 4.3 | 0.00 | 0.00 | 0.00 | 83 | 1015.1 |
| 20260508132009 | 63 | 142 | 0.0 | 1.7 | 0.00 | 0.00 | 0.00 | 83 | 1015.3 |
| 20260508131522 | 63 | 143 | 0.0 | 1.7 | 0.00 | 0.00 | 0.00 | 83 | 1015.3 |
| 20260508131007 | 63 | 143 | 0.0 | 0.9 | 0.00 | 0.00 | 0.00 | 85 | 1015.3 |
| 20260508130510 | 63 | 144 | 0.0 | 3.5 | 0.00 | 0.00 | 0.00 | 84 | 1015.4 |
| 20260508130033 | 62 | 142 | 0.0 | 3.5 | 0.00 | 0.00 | 0.00 | 85 | 1015.3 |
| 20260508125508 | 62 | 177 | 0.9 | 3.5 | 0.00 | 0.00 | 0.00 | 87 | 1015.3 |
| 20260508125008 | 62 | 196 | 0.0 | 0.9 | 0.00 | 0.00 | 0.00 | 88 | 1015.4 |
| 20260508124525 | 62 | 196 | 0.0 | 2.6 | 0.00 | 0.00 | 0.00 | 89 | 1015.6 |
| 20260508124006 | 62 | 197 | 0.0 | 2.6 | 0.00 | 0.00 | 0.00 | 90 | 1015.6 |
| 20260508123502 | 61 | 198 | 0.0 | 0.0 | 0.00 | 0.00 | 0.00 | 90 | 1015.6 |
| 20260508123016 | 61 | 198 | 0.0 | 0.0 | 0.00 | 0.00 | 0.00 | 90 | 1015.5 |
| 20260508122509 | 61 | 198 | 0.0 | 0.0 | 0.00 | 0.00 | 0.00 | 90 | 1015.6 |
| 20260508122006 | 61 | 198 | 0.0 | 0.0 | 0.00 | 0.00 | 0.00 | 90 | 1015.5 |
| 20260508121520 | 61 | 198 | 0.0 | 0.0 | 0.00 | 0.00 | 0.00 | 90 | 1015.7 |
| 20260508121005 | 61 | 198 | 0.0 | 0.0 | 0.00 | 0.00 | 0.00 | 90 | 1015.6 |
| 20260508120508 | 61 | 198 | 0.0 | 0.0 | 0.00 | 0.00 | 0.00 | 90 | 1015.6 |
| 20260508120023 | 61 | 198 | 0.0 | 0.9 | 0.00 | 0.00 | 0.00 | 90 | 1015.4 |
| 20260508115507 | 61 | 198 | 0.0 | 0.9 | 0.00 | 0.00 | 0.00 | 89 | 1015.4 |
| 20260508115012 | 61 | 198 | 0.0 | 3.5 | 0.00 | 0.00 | 0.00 | 89 | 1015.6 |
| 20260508114526 | 61 | 198 | 0.0 | 3.5 | 0.00 | 0.00 | 0.00 | 89 | 1015.4 |
| 20260508114007 | 61 | 191 | 0.0 | 3.5 | 0.00 | 0.00 | 0.00 | 89 | 1015.4 |
| 20260508113508 | 61 | 186 | 0.9 | 3.5 | 0.00 | 0.00 | 0.00 | 89 | 1015.3 |
| 20260508113027 | 61 | 209 | 0.0 | 0.9 | 0.00 | 0.00 | 0.00 | 89 | 1015.5 |
| 20260508112506 | 61 | 215 | 0.0 | 0.0 | 0.00 | 0.00 | 0.00 | 89 | 1015.6 |
| 20260508112006 | 61 | 215 | 0.0 | 0.0 | 0.00 | 0.00 | 0.00 | 89 | 1015.9 |
| 20260508111514 | 61 | 215 | 0.0 | 0.0 | 0.00 | 0.00 | 0.00 | 89 | 1015.8 |
| 20260508111007 | 61 | 215 | 0.0 | 0.0 | 0.00 | 0.00 | 0.00 | 89 | 1015.8 |
| 20260508110504 | 61 | 303 | 0.0 | 1.7 | 0.00 | 0.00 | 0.00 | 89 | 1015.9 |
| 20260508110020 | 61 | 304 | 0.0 | 4.3 | 0.00 | 0.00 | 0.00 | 89 | 1016.1 |
| 20260508105506 | 61 | 304 | 0.9 | 4.3 | 0.00 | 0.00 | 0.00 | 89 | 1016.3 |
| 20260508105008 | 61 | 307 | 0.9 | 4.3 | 0.00 | 0.00 | 0.00 | 89 | 1016.1 |
| 20260508104528 | 61 | 197 | 0.0 | 2.6 | 0.00 | 0.00 | 0.00 | 89 | 1015.3 |
| 20260508104014 | 61 | 197 | 0.0 | 2.6 | 0.00 | 0.00 | 0.00 | 89 | 1015.1 |
| 20260508103506 | 61 | 197 | 0.0 | 2.6 | 0.00 | 0.00 | 0.00 | 89 | 1014.7 |
| 20260508103033 | 61 | 196 | 0.0 | 2.6 | 0.00 | 0.00 | 0.00 | 89 | 1014.4 |
| 20260508102513 | 61 | 184 | 0.0 | 0.9 | 0.00 | 0.00 | 0.00 | 89 | 1014.5 |
| 20260508102012 | 61 | 184 | 0.0 | 0.9 | 0.00 | 0.00 | 0.00 | 89 | 1014.5 |
| 20260508101528 | 61 | 182 | 0.0 | 1.7 | 0.00 | 0.00 | 0.00 | 89 | 1014.4 |
| 20260508101003 | 61 | 182 | 0.0 | 1.7 | 0.00 | 0.00 | 0.00 | 90 | 1014.2 |
| 20260508100503 | 61 | 161 | 0.0 | 1.7 | 0.00 | 0.00 | 0.00 | 90 | 1014.4 |
| 20260508100019 | 61 | 161 | 0.0 | 1.7 | 0.00 | 0.00 | 0.00 | 90 | 1014.4 |
| 20260508095509 | 61 | 161 | 0.0 | 0.0 | 0.00 | 0.00 | 0.00 | 90 | 1014.3 |
| 20260508095008 | 61 | 161 | 0.0 | 0.0 | 0.00 | 0.00 | 0.00 | 90 | 1014.4 |
| 20260508094524 | 61 | 161 | 0.0 | 0.0 | 0.00 | 0.00 | 0.00 | 89 | 1014.7 |
| 20260508094009 | 61 | 161 | 0.0 | 0.0 | 0.00 | 0.00 | 0.00 | 89 | 1014.7 |
| 20260508093507 | 61 | 161 | 0.0 | 0.0 | 0.00 | 0.00 | 0.00 | 89 | 1014.6 |
| 20260508093035 | 61 | 161 | 0.0 | 0.0 | 0.00 | 0.00 | 0.00 | 89 | 1014.5 |
| 20260508092510 | 61 | 161 | 0.0 | 0.0 | 0.00 | 0.00 | 0.00 | 89 | 1014.6 |
| 20260508092012 | 61 | 161 | 0.0 | 0.9 | 0.00 | 0.00 | 0.00 | 89 | 1014.6 |
| 20260508091533 | 61 | 161 | 0.0 | 1.7 | 0.00 | 0.00 | 0.00 | 89 | 1014.8 |
| 20260508091007 | 61 | 160 | 0.0 | 1.7 | 0.00 | 0.00 | 0.00 | 89 | 1014.7 |
| 20260508090510 | 61 | 160 | 0.0 | 1.7 | 0.00 | 0.00 | 0.00 | 89 | 1014.7 |
| 20260508090027 | 61 | 159 | 0.0 | 2.6 | 0.00 | 0.00 | 0.00 | 89 | 1014.6 |
| 20260508085507 | 61 | 157 | 0.0 | 4.3 | 0.00 | 0.00 | 0.00 | 89 | 1014.5 |
| 20260508085004 | 61 | 360 | 0.9 | 4.3 | 0.00 | 0.00 | 0.00 | 89 | 1014.4 |
| 20260508084520 | 61 | 360 | 0.0 | 4.3 | 0.00 | 0.00 | 0.00 | 89 | 1014.6 |
| 20260508084008 | 62 | 167 | 0.9 | 3.5 | 0.00 | 0.00 | 0.00 | 89 | 1014.8 |
| 20260508083508 | 62 | 360 | 0.0 | 0.9 | 0.00 | 0.00 | 0.00 | 88 | 1015.3 |
| 20260508083021 | 62 | 219 | 0.0 | 0.9 | 0.00 | 0.00 | 0.00 | 88 | 1015.5 |
| 20260508082517 | 62 | 224 | 0.0 | 0.0 | 0.00 | 0.00 | 0.00 | 88 | 1015.6 |
| 20260508082011 | 62 | 225 | 0.0 | 0.0 | 0.00 | 0.00 | 0.00 | 88 | 1015.7 |
| 20260508081526 | 61 | 225 | 0.0 | 0.0 | 0.00 | 0.00 | 0.00 | 88 | 1015.9 |
| 20260508081010 | 61 | 225 | 0.0 | 0.9 | 0.00 | 0.00 | 0.00 | 87 | 1016.2 |
| 20260508080507 | 61 | 225 | 0.0 | 0.9 | 0.00 | 0.00 | 0.00 | 87 | 1016.4 |
| 20260508080030 | 61 | 224 | 0.0 | 2.6 | 0.00 | 0.00 | 0.00 | 87 | 1016.4 |
| 20260508075509 | 62 | 225 | 0.0 | 2.6 | 0.00 | 0.00 | 0.00 | 87 | 1016.4 |
| 20260508075008 | 61 | 194 | 0.0 | 0.9 | 0.00 | 0.00 | 0.00 | 87 | 1016.2 |
| 20260508074527 | 61 | 194 | 0.0 | 0.0 | 0.00 | 0.00 | 0.00 | 87 | 1015.9 |
| 20260508074005 | 61 | 194 | 0.0 | 0.0 | 0.00 | 0.00 | 0.00 | 87 | 1015.5 |
| 20260508073505 | 61 | 194 | 0.0 | 0.0 | 0.00 | 0.00 | 0.00 | 87 | 1015.7 |
| 20260508073023 | 61 | 194 | 0.0 | 0.0 | 0.00 | 0.00 | 0.00 | 87 | 1015.8 |
| 20260508072508 | 61 | 194 | 0.0 | 0.9 | 0.00 | 0.00 | 0.00 | 87 | 1015.7 |
| 20260508072008 | 61 | 194 | 0.0 | 0.9 | 0.00 | 0.00 | 0.00 | 87 | 1015.8 |
| 20260508071524 | 61 | 194 | 0.0 | 0.0 | 0.00 | 0.00 | 0.00 | 87 | 1015.8 |
| 20260508071012 | 61 | 194 | 0.0 | 0.0 | 0.00 | 0.00 | 0.00 | 87 | 1015.9 |
| 20260508070507 | 61 | 194 | 0.0 | 0.0 | 0.00 | 0.00 | 0.00 | 87 | 1015.7 |
| 20260508070027 | 61 | 194 | 0.0 | 0.0 | 0.00 | 0.00 | 0.00 | 87 | 1016.0 |
| 20260508065509 | 61 | 194 | 0.0 | 0.0 | 0.00 | 0.00 | 0.00 | 87 | 1016.2 |
| 20260508065008 | 61 | 194 | 0.0 | 0.0 | 0.00 | 0.00 | 0.00 | 86 | 1016.2 |